Regional Weather Roundup
Issued by NWS Mobile, AL

Home | Current Version | Previous Version | Text Only | Print | Product List | Glossary On
Versions: 1 2 3 4 5 6 7 8 9 10 11 12 13 14 15 16 17 18 19 20 21 22 23 24 25 26 27 28 29 30 31 32 33 34 35 36 37 38 39 40 41 42 43 44 45 46 47 48 49 50
000
ASUS44 KMOB 301017
RWRMOB
REGIONAL WEATHER ROUNDUP
NATIONAL WEATHER SERVICE MOBILE AL
500 AM CDT THU JUL 30 2015

ALZ061>064-301100-
COASTAL ALABAMA


CITY           SKY/WX    TMP DP  RH WIND       PRES   REMARKS
MOBILE REG APT PTCLDY    76  75  97 NW3       29.96F
BROOKLEY FIELD PTCLDY    78  74  87 NW6       29.96F
GULF SHORES    SUNNY     78  74  90 NW3       29.94S

$$

ALZ051>060-301100-
INTERIOR SOUTHWEST AND SOUTH CENTRAL ALABAMA


CITY           SKY/WX    TMP DP  RH WIND       PRES   REMARKS
ANDALUSIA/OPP  MOCLDY    80  74  81 NW3       29.93F
EVERGREEN      PTCLDY    75  73  93 CALM      29.95F
FLORALA        PTSUNNY   75  73  93 CALM      29.96S FOG
GREENVILLE     NOT AVBL

$$

FLZ001>006-301100-
WESTERN FLORIDA PANHANDLE


CITY           SKY/WX    TMP DP  RH WIND       PRES   REMARKS
CRESTVIEW      MOCLDY    76  76 100 CALM      29.95S FOG
DESTIN         MOCLDY    80  76  87 N6        29.93S
DUKE FIELD     FAIR      76  75  94 NW2       29.93S
MARY ESTHER    MOCLDY    77  74  89 N6        29.92S
MILTON         SUNNY     78  74  87 NW8       29.94S
PENSACOLA      CLEAR     77  74  90 NW7       29.94S
NAS PENSACOLA  CLEAR     77  74  90 N3        29.93F
VALPARAISO     MOCLDY    77  75  92 CALM      29.94R

$$

...MARINE OBSERVATIONS...

STATION/POSITION TIME  SKY/WX   TEMP    WIND        PRES    VSBY
                                AIR SEA DIR/SP/G
                 (UTC)          (F)     (DEG/KT/KT) (MB)    (MI)
PASCAGOULA       0900            79                   N/A
E DAUPHIN ISLAND 1000            82     320/ 10/ 10 1013.9R
MIDDLE BAY LIGHT 0900            81     340/ 11     1013.9R
MEAHER PARK      1000            79     360/  3     1013.5F
12 S ORANGE BCH  0950            82 84  340/ 10/ 12 1013.1R
WVE H/P(F/S)=  1/ 3

64 S DAUPHIN ISL 0950            85 87  350/ 12/ 14 1014.4R
WVE H/P(F/S)=  2/ 3

67 S FORT MORGAN 0930            85     320/ 12     1014.2F
115 SE PENSACOLA 0950            83 87  310/ 12/ 14 1014.0S
WVE H/P(F/S)=  2/ 3

MID GULF/42001   0950            84 86  280/  8/ 10 1015.6F
WVE H/P(F/S)=  1

EAST GULF/42003  0950            84 85  270/ 10/ 14 1014.7F
WVE H/P(F/S)=  1/ 8


$$

...NEARBY LOCATIONS

CITY           SKY/WX    TMP DP  RH WIND       PRES   REMARKS
GULFPORT       MOCLDY    76  74  93 NW5       29.96S
BILOXI         CLOUDY    78  75  92 NW5       29.96S
PASCAGOULA     MOCLDY    76  75  97 N3        29.96
HATTIESBURG    PTCLDY    77  74  90 NW3       29.99S
LAUREL         PTCLDY    77  72  83 NW3       30.00S
MERIDIAN       CLEAR     74  72  93 CALM      29.98F
MERIDIAN NAS   CLEAR     74  72  93 W5        29.98F
MONTGOMERY     PTCLDY    77  74  90 NW6       29.94S
MAXWELL AFB    CLEAR     77  76  97 W1        29.94S
TROY           PTCLDY    77  75  93 W3        29.94F
FORT RUCKER    PTCLDY    76  74  93 CALM      29.91F FOG
DALEVILLE      MOCLDY    76  76  99 SW2       29.92F
DOTHAN         PTCLDY    76  75  97 W6        29.96S

$$

...OTHER SURROUNDING LOCATIONS...

CITY           SKY/WX    TMP DP  RH WIND       PRES   REMARKS
BIRMINGHAM     CLEAR     76  74  93 CALM      30.01S
TUSCALOOSA     CLEAR     74  73  97 CALM      29.98S
COLUMBUS GA    CLEAR     77  72  84 CALM      29.93R
PANAMA CITY    NOT AVBL
TALLAHASSEE    MOCLDY    77  75  93 CALM      29.94S
BATON ROUGE    PTCLDY    78  75  90 CALM      29.99F
NEW ORLEANS    MOCLDY    78  74  87 NW5       29.99S
SLIDELL        PTCLDY    75  75 100 CALM      29.98S
JACKSON        CLEAR     77  73  87 CALM      30.00S
MCCOMB         PTCLDY    76  75  97 N6        30.01S

$$

...SURROUNDING MARINE OBSERVATIONS...

STATION/POSITION TIME  SKY/WX   TEMP    WIND        PRES    VSBY
                                AIR SEA DIR/SP/G
                 (UTC)          (F)     (DEG/KT/KT) (MB)    (MI)
WAVELAND         0900            78 87                N/A
PASCAGOULA RGN A 0900            79                   N/A
PASCAGOULA PORT  0900               86                N/A
GRAND ISLE       0900            83 90                N/A
SOUTHWEST PASS   1000            84     350/ 11/ 12 1015.1F
SHELL BEACH      0900            81 88                N/A
APALACHICOLA     0900            80 88                N/A
TYNDALL TOWER C  1000            84     240/ 11/ 12 1013.7R
S APLCHCLA/42036 0950            83 85  210/  8/ 10 1014.0F
WVE H/P(F/S)=  2/ 4


$$




USA.gov is the U.S. government's official web portal to all federal, state and local government web resources and services.